Lincoln, IL

7:09 AM CST on November 18, 2017 (GMT -0600)
Lincoln

Weather History for KAAA - April, 2014

Change the Weather History Date:

Friday, April 11, 2014

  Actual Average (KSPI) Record (KSPI)
Temperature  
Mean Temperature 56 °F -  
Max Temperature 73 °F 63 °F 90 °F (1930)
Min Temperature 39 °F 40 °F 24 °F (1973)
Degree Days  
Heating Degree Days 9    
Growing Degree Days 6 (Base 50)    
Moisture  
Dew Point 30 °F    
Average Humidity 39    
Maximum Humidity 73    
Minimum Humidity 15    
Precipitation  
Precipitation 0.00 in - - ()
Sea Level Pressure  
Sea Level Pressure 30.02 in    
Wind  
Wind Speed 2 mph (West)    
Max Wind Speed 9 mph    
Max Gust Speed -    
Visibility 10 miles    
Events      
Averages and records for this station are not official NWS values.
T = Trace of Precipitation, MM = Missing Value Source: NWS Daily Summary

Daily Weather History Graph

Daily Weather History Graph

Search for Another Location

Airport or City:

Trip Planner

Search our weather history database for the weather conditions in past years. The results will help you decide how hot, cold, wet, or windy it might be!

Date:

Astronomy

Apr. 11, 2014 Rise Set
Actual Time 6:25 AM CDT 7:31 PM CDT
Civil Twilight 5:57 AM CDT 7:59 PM CDT
Nautical Twilight 5:24 AM CDT 8:33 PM CDT
Astronomical Twilight 4:49 AM CDT 9:08 PM CDT
Moon 4:12 PM CDT (4/11) 4:20 AM CDT (4/11)
Length of Visible Light 14h 02m
Length of Day
13h 06m
Waxing Gibbous, 87% of the Moon is Illuminated
Apr 11
Waxing Gibbous
Apr 15
Full
Apr 22
Last Quarter
Apr 29
New
May 6
First Quarter

Hourly Weather History & Observations

Time (CDT) Temp. Windchill Dew Point Humidity Pressure Visibility Wind Dir Wind Speed Gust Speed Precip Events Conditions
12:15 AM 51.1 °F - 32.5 °F 49% 29.98 in 10.0 mi Calm Calm - N/A   Clear
12:35 AM 51.1 °F - 32.2 °F 48% 29.99 in 10.0 mi Calm Calm - N/A   Clear
12:55 AM 50.5 °F - 32.9 °F 51% 29.99 in 10.0 mi Calm Calm - N/A   Mostly Cloudy
1:15 AM 50.4 °F - 32.9 °F 51% 30.00 in 10.0 mi Calm Calm - N/A   Overcast
1:35 AM 50.2 °F - 33.4 °F 53% 30.00 in 10.0 mi Calm Calm - N/A   Overcast
1:55 AM 49.8 °F - 32.4 °F 51% 30.00 in 10.0 mi Calm Calm - N/A   Scattered Clouds
2:15 AM 48.7 °F - 32.5 °F 54% 30.00 in 10.0 mi NW 4.6 mph - N/A   Clear
2:35 AM 48.2 °F - 32.0 °F 54% 30.00 in 10.0 mi Calm Calm - N/A   Clear
2:55 AM 46.6 °F - 32.0 °F 57% 30.00 in 10.0 mi NW 3.5 mph - N/A   Clear
3:15 AM 46.6 °F - 31.1 °F 55% 29.99 in 10.0 mi Calm Calm - N/A   Clear
3:35 AM 45.1 °F - 31.1 °F 58% 30.01 in 10.0 mi Calm Calm - N/A   Clear
3:55 AM 44.4 °F - 30.7 °F 59% 30.00 in 10.0 mi Calm Calm - N/A   Clear
4:15 AM 41.9 °F - 31.3 °F 66% 30.01 in 10.0 mi Calm Calm - N/A   Clear
4:35 AM 40.3 °F - 31.1 °F 70% 30.02 in 10.0 mi Calm Calm - N/A   Clear
4:55 AM 41.2 °F - 31.5 °F 68% 30.02 in 10.0 mi Calm Calm - N/A   Clear
5:15 AM 39.7 °F - 31.6 °F 73% 30.02 in 10.0 mi Calm Calm - N/A   Clear
5:35 AM 40.1 °F - 31.8 °F 72% 30.04 in 10.0 mi Calm Calm - N/A   Clear
5:55 AM 40.3 °F - 31.8 °F 72% 30.05 in 10.0 mi Calm Calm - N/A   Clear
6:15 AM 42.8 °F 41.1 °F 30.2 °F 61% 30.05 in 10.0 mi WNW 3.5 mph - N/A   Clear
6:35 AM 41.9 °F 40.0 °F 30.2 °F 63% 30.05 in 10.0 mi WNW 3.5 mph - N/A   Clear
6:55 AM 42.1 °F 40.2 °F 30.4 °F 63% 30.06 in 10.0 mi WNW 3.5 mph - N/A   Clear
7:15 AM 43.9 °F 41.3 °F 30.7 °F 60% 30.07 in 10.0 mi WNW 4.6 mph - N/A   Clear
7:35 AM 45.5 °F 44.2 °F 31.1 °F 57% 30.07 in 10.0 mi WNW 3.5 mph - N/A   Clear
7:55 AM 48.2 °F - 31.8 °F 53% 30.07 in 10.0 mi WNW 4.6 mph - N/A   Clear
8:15 AM 50.9 °F - 31.8 °F 48% 30.07 in 10.0 mi WNW 4.6 mph - N/A   Clear
8:35 AM 52.7 °F - 33.6 °F 48% 30.07 in 10.0 mi NW 3.5 mph - N/A   Clear
8:55 AM 54.5 °F - 33.3 °F 45% 30.07 in 10.0 mi WNW 4.6 mph - N/A   Clear
9:15 AM 56.8 °F - 34.0 °F 42% 30.07 in 10.0 mi NW 3.5 mph - N/A   Clear
9:35 AM 58.8 °F - 32.2 °F 37% 30.07 in 10.0 mi Calm Calm - N/A   Clear
9:55 AM 60.8 °F - 30.2 °F 31% 30.07 in 10.0 mi Calm Calm - N/A   Clear
10:15 AM 61.9 °F - 31.1 °F 31% 30.07 in 10.0 mi North 3.5 mph - N/A   Clear
10:35 AM 63.3 °F - 29.5 °F 28% 30.07 in 10.0 mi NNE 3.5 mph - N/A   Clear
10:55 AM 64.2 °F - 29.3 °F 27% 30.07 in 10.0 mi Calm Calm - N/A   Clear
11:15 AM 66.0 °F - 28.6 °F 25% 30.07 in 10.0 mi WNW 3.5 mph - N/A   Clear
11:35 AM 66.4 °F - 25.2 °F 21% 30.07 in 10.0 mi Calm Calm - N/A   Clear
11:55 AM 67.5 °F - 26.6 °F 22% 30.06 in 10.0 mi North 4.6 mph - N/A   Clear
12:15 PM 68.2 °F - 27.0 °F 21% 30.05 in 10.0 mi NE 3.5 mph - N/A   Clear
12:35 PM 68.9 °F - 25.9 °F 20% 30.05 in 10.0 mi WNW 3.5 mph - N/A   Clear
12:55 PM 69.8 °F - 24.3 °F 18% 30.05 in 10.0 mi NNW 5.8 mph - N/A   Clear
1:15 PM 70.9 °F - 24.1 °F 17% 30.04 in 10.0 mi WNW 8.1 mph - N/A   Clear
1:35 PM 71.2 °F - 24.8 °F 18% 30.03 in 10.0 mi Calm Calm - N/A   Clear
1:55 PM 71.6 °F - 24.3 °F 17% 30.03 in 10.0 mi Calm Calm - N/A   Clear
2:15 PM 71.6 °F - 24.6 °F 17% 30.02 in 10.0 mi Calm Calm - N/A   Clear
2:35 PM 72.5 °F - 22.5 °F 15% 30.02 in 10.0 mi WSW 4.6 mph - N/A   Clear
2:55 PM 72.5 °F - 24.1 °F 16% 30.01 in 10.0 mi WNW 5.8 mph - N/A   Clear
3:15 PM 72.9 °F - 25.3 °F 17% 30.01 in 10.0 mi SSW 5.8 mph - N/A   Clear
3:35 PM 73.6 °F - 25.0 °F 16% 30.00 in 10.0 mi SW 3.5 mph - N/A   Clear
3:55 PM 73.0 °F - 25.0 °F 17% 30.00 in 10.0 mi Calm Calm - N/A   Clear
4:15 PM 73.0 °F - 24.4 °F 16% 29.99 in 10.0 mi Calm Calm - N/A   Clear
4:35 PM 73.6 °F - 24.3 °F 16% 29.99 in 10.0 mi WSW 5.8 mph - N/A   Clear
4:55 PM 73.4 °F - 23.5 °F 16% 29.98 in 10.0 mi West 4.6 mph - N/A   Clear
5:15 PM 73.0 °F - 24.6 °F 16% 29.98 in 10.0 mi South 5.8 mph - N/A   Clear
5:35 PM 72.9 °F - 23.9 °F 16% 29.98 in 10.0 mi Calm Calm - N/A   Clear
5:55 PM 72.5 °F - 24.3 °F 16% 29.98 in 10.0 mi Calm Calm - N/A   Clear
6:15 PM 71.8 °F - 25.0 °F 17% 29.98 in 10.0 mi SSW 3.5 mph - N/A   Clear
6:35 PM 70.9 °F - 23.5 °F 17% 29.98 in 10.0 mi Calm Calm - N/A   Clear
6:55 PM 70.0 °F - 24.1 °F 18% 29.99 in 10.0 mi Calm Calm - N/A   Clear
7:15 PM 67.6 °F - 28.2 °F 23% 29.99 in 10.0 mi Calm Calm - N/A   Clear
7:35 PM 64.9 °F - 28.9 °F 26% 29.99 in 10.0 mi Calm Calm - N/A   Clear
7:55 PM 61.9 °F - 31.8 °F 32% 30.00 in 10.0 mi Calm Calm - N/A   Clear
8:15 PM 61.9 °F - 31.3 °F 32% 30.00 in 10.0 mi South 4.6 mph - N/A   Clear
8:35 PM 60.6 °F - 32.0 °F 34% 30.01 in 10.0 mi Calm Calm - N/A   Clear
8:55 PM 59.5 °F - 32.5 °F 36% 30.02 in 10.0 mi South 3.5 mph - N/A   Clear
9:15 PM 58.1 °F - 34.0 °F 40% 30.02 in 10.0 mi South 4.6 mph - N/A   Clear
9:35 PM 57.2 °F - 34.9 °F 43% 30.02 in 10.0 mi South 4.6 mph - N/A   Clear
9:55 PM 57.2 °F - 35.6 °F 44% 30.03 in 10.0 mi South 5.8 mph - N/A   Clear
10:15 PM 56.7 °F - 35.8 °F 46% 30.03 in 10.0 mi South 3.5 mph - N/A   Clear
10:35 PM 55.2 °F - 36.0 °F 48% 30.02 in 10.0 mi South 5.8 mph - N/A   Clear
10:55 PM 56.1 °F - 35.6 °F 46% 30.02 in 10.0 mi South 9.2 mph - N/A   Clear
11:15 PM 55.4 °F - 36.1 °F 48% 30.03 in 10.0 mi South 4.6 mph - N/A   Clear
11:35 PM 53.8 °F - 36.9 °F 53% 30.03 in 10.0 mi South 3.5 mph - N/A   Clear
11:55 PM 53.6 °F - 36.5 °F 52% 30.03 in 10.0 mi South 4.6 mph - N/A   Clear